Starlink 11616

operational
NORAD ID: 63137 Int'l Des: 2025-043 Owner: SPXS Country: US Constellation: starlink
LEOCIRCULAR

Über Starlink 11616

Beschreibung wird geladen...

Live-Position

3D-Globus wird geladen...

Nächste Überflüge

Höhenverlauf

Altitude vs Time

uPlot chart will show altitude changes over time

Zweizeiliger Elementsatz

1 63137U 25043F 25350.50934210 .00212324 00000-0 16060-2 0 9992
2 63137 42.9995 31.7752 0001649 297.1068 62.9631 15.70991353 46390
Epoch: 16. Dez. 2025 • Age: 24 hours

Aktueller Status

Höhe 367.3 km
Geschwindigkeit 7.69 km/s
Subsatellitenpunkt -43.08°S, 21.46°E
Startdatum 3. März 2025
Alter 0.7 years
Typ internet

Technische Details

Klassifizierung Payload
Masse 960.00 kg
Trockenmasse 910.00 kg
Gesamtmasse 960.00 kg
Länge 0.30 m
Durchmesser 4.10 m
Spannweite 29.00 m
Form Box + pan
Hersteller SPXS
Bus-Typ Starlink V2MD
Phasenstatus In Orbit
Besitzer/Staat SPXS/US

Große Konstellationen

Loading constellations...